EW9394 Weather Reports


time (UTC)temp
C
wind
direction
speed
KPH
gust
KPH
rain 1hr
cm
rain 24hr
cm
rain mn
cm
humidity
%
barometer
mb
20260831132202 27 188 1.6 1.6 0.00 0.00 0.00 73 1018.0
20260831131657 26 187 1.6 1.6 0.00 0.00 0.00 74 1018.1
20260831131154 26 194 0.0 0.0 0.00 0.00 0.00 74 1017.9
20260831130649 26 139 1.6 1.6 0.00 0.00 0.00 75 1017.8
20260831130144 26 192 0.0 1.6 0.00 0.00 0.00 75 1018.0
20260831125642 26 184 1.6 1.6 0.00 0.00 0.00 75 1018.0
20260831125138 26 198 1.6 1.6 0.00 0.00 0.00 75 1017.8
20260831124634 26 195 0.0 0.0 0.00 0.00 0.00 75 1017.9
20260831124130 26 194 0.0 0.0 0.00 0.00 0.00 75 1017.5
20260831123629 25 186 0.0 1.6 0.00 0.00 0.00 75 1017.6
20260831123129 25 196 0.0 0.0 0.00 0.00 0.00 75 1017.5
20260831122628 25 181 0.0 1.6 0.00 0.00 0.00 75 1017.5
20260831122125 25 197 0.0 1.6 0.00 0.00 0.00 75 1017.4
20260831121623 26 190 0.0 1.6 0.00 0.00 0.00 74 1017.4
20260831121120 26 199 0.0 1.6 0.00 0.00 0.00 74 1017.4
20260831120615 26 193 0.0 1.6 0.00 0.00 0.00 74 1017.2
20260831120110 26 194 0.0 0.0 0.00 0.00 0.00 73 1017.2
20260831115606 26 182 1.6 1.6 0.00 0.00 0.00 72 1017.2
20260831115101 26 175 1.6 1.6 0.00 0.00 0.00 72 1016.8
20260831114600 26 193 0.0 0.0 0.00 0.00 0.00 72 1017.0
20260831114055 26 174 1.6 1.6 0.00 0.00 0.00 72 1016.8
20260831113554 27 184 0.0 0.0 0.00 0.00 0.00 71 1016.9
20260831113050 27 189 0.0 1.6 0.00 0.00 0.00 71 1016.7
20260831112549 27 196 0.0 1.6 0.00 0.00 0.00 71 1016.7
20260831112044 27 217 1.6 1.6 0.00 0.00 0.00 71 1016.5
20260831111540 27 202 1.6 1.6 0.00 0.00 0.00 71 1016.7
20260831111036 27 195 0.0 0.0 0.00 0.00 0.00 70 1016.5
20260831110531 27 179 1.6 1.6 0.00 0.00 0.00 70 1016.5
20260831110026 27 193 0.0 0.0 0.00 0.00 0.00 70 1016.3
20260831105525 27 183 4.8 8.0 0.00 0.00 0.00 69 1016.6
20260831105020 27 171 4.8 4.8 0.00 0.00 0.00 69 1016.5
20260831104517 27 172 4.8 4.8 0.00 0.00 0.00 69 1016.4
20260831104012 27 196 1.6 1.6 0.00 0.00 0.00 69 1016.3
20260831103507 27 181 3.2 3.2 0.00 0.00 0.00 68 1016.3
20260831103003 27 195 0.0 1.6 0.00 0.00 0.00 68 1016.3
20260831102457 27 198 1.6 3.2 0.00 0.00 0.00 68 1016.5
20260831101952 27 195 4.8 4.8 0.00 0.00 0.00 68 1016.4
20260831101447 27 171 1.6 3.2 0.00 0.00 0.00 67 1016.2
20260831100943 28 203 3.2 3.2 0.00 0.00 0.00 67 1016.2
20260831100439 28 220 1.6 1.6 0.00 0.00 0.00 67 1016.3
20260831095934 28 178 3.2 3.2 0.00 0.00 0.00 66 1016.5
20260831095433 28 183 0.0 1.6 0.00 0.00 0.00 66 1016.4
20260831094928 28 181 3.2 3.2 0.00 0.00 0.00 65 1016.3
20260831094424 28 170 4.8 4.8 0.00 0.00 0.00 65 1016.3
20260831093920 28 200 1.6 3.2 0.00 0.00 0.00 65 1016.3
20260831093414 28 190 1.6 3.2 0.00 0.00 0.00 64 1016.3
20260831092911 28 179 3.2 3.2 0.00 0.00 0.00 64 1016.0
20260831092407 28 183 4.8 8.0 0.00 0.00 0.00 63 1016.2
20260831091902 28 181 1.6 3.2 0.00 0.00 0.00 62 1015.9
20260831091357 28 190 3.2 4.8 0.00 0.00 0.00 62 1015.9
20260831090852 28 188 4.8 4.8 0.00 0.00 0.00 61 1015.9
20260831090348 28 200 6.4 9.7 0.00 0.00 0.00 61 1015.8
20260831085844 28 192 0.0 1.6 0.00 0.00 0.00 60 1015.8
20260831085338 28 173 6.4 8.0 0.00 0.00 0.00 60 1016.0
20260831084833 28 195 1.6 1.6 0.00 0.00 0.00 60 1016.2
20260831084329 29 201 3.2 4.8 0.00 0.00 0.00 59 1016.0
20260831083825 28 173 1.6 3.2 0.00 0.00 0.00 59 1016.0
20260831083321 29 214 1.6 3.2 0.00 0.00 0.00 59 1015.9
20260831082819 29 211 1.6 3.2 0.00 0.00 0.00 59 1015.9
20260831082314 29 187 3.2 3.2 0.00 0.00 0.00 58 1015.8
20260831081810 29 192 1.6 3.2 0.00 0.00 0.00 58 1015.6
20260831081305 29 189 3.2 4.8 0.00 0.00 0.00 57 1015.8
20260831080800 30 176 4.8 4.8 0.00 0.00 0.00 57 1015.7
20260831080255 30 202 0.0 1.6 0.00 0.00 0.00 56 1015.6
20260831075751 30 210 3.2 3.2 0.00 0.00 0.00 56 1015.6
20260831075246 30 181 4.8 8.0 0.00 0.00 0.00 55 1015.7
20260831074746 30 114 4.8 4.8 0.00 0.00 0.00 54 1015.6
20260831074240 30 177 1.6 3.2 0.00 0.00 0.00 54 1015.6
20260831073736 30 240 4.8 8.0 0.00 0.00 0.00 53 1015.4
20260831073234 30 191 0.0 1.6 0.00 0.00 0.00 54 1015.8
20260831072729 30 164 4.8 8.0 0.00 0.00 0.00 54 1015.5
20260831072227 30 166 3.2 3.2 0.00 0.00 0.00 54 1015.6
20260831071726 30 174 0.0 1.6 0.00 0.00 0.00 55 1015.6
20260831071221 30 181 6.4 8.0 0.00 0.00 0.00 54 1015.5
20260831070715 30 183 3.2 4.8 0.00 0.00 0.00 54 1015.4
20260831070214 30 198 0.0 1.6 0.00 0.00 0.00 54 1015.3
20260831065708 30 198 1.6 3.2 0.00 0.00 0.00 54 1015.8
20260831065207 30 199 1.6 1.6 0.00 0.00 0.00 54 1015.8
20260831064702 30 195 1.6 1.6 0.00 0.00 0.00 54 1015.8
20260831064157 30 187 3.2 3.2 0.00 0.00 0.00 54 1015.5
20260831063653 30 181 1.6 3.2 0.00 0.00 0.00 54 1015.5
20260831063148 30 180 6.4 9.7 0.00 0.00 0.00 53 1015.5
20260831062648 30 185 1.6 3.2 0.00 0.00 0.00 53 1015.6
20260831062148 30 186 4.8 4.8 0.00 0.00 0.00 53 1015.6
20260831061646 30 200 3.2 3.2 0.00 0.00 0.00 53 1015.5
20260831061142 30 188 4.8 4.8 0.00 0.00 0.00 53 1015.7
20260831060638 30 185 0.0 0.0 0.00 0.00 0.00 53 1015.7
20260831060138 31 160 1.6 3.2 0.00 0.00 0.00 53 1015.6
20260831055637 31 190 4.8 4.8 0.00 0.00 0.00 52 1015.5
20260831055132 31 213 1.6 3.2 0.00 0.00 0.00 52 1015.8
20260831054632 31 175 4.8 4.8 0.00 0.00 0.00 52 1015.9
20260831054131 31 167 1.6 3.2 0.00 0.00 0.00 52 1015.8
20260831053626 31 206 1.6 3.2 0.00 0.00 0.00 52 1015.7
20260831053126 31 192 0.0 0.0 0.00 0.00 0.00 52 1015.7
20260831052625 31 197 0.0 1.6 0.00 0.00 0.00 51 1015.5
20260831052124 31 199 1.6 1.6 0.00 0.00 0.00 51 1015.5
20260831051622 31 173 4.8 8.0 0.00 0.00 0.00 51 1015.6
20260831051121 31 189 1.6 1.6 0.00 0.00 0.00 50 1015.5
20260831050616 31 199 1.6 1.6 0.00 0.00 0.00 50 1015.5
20260831050115 31 192 3.2 3.2 0.00 0.00 0.00 49 1015.5
20260831045614 31 205 4.8 4.8 0.00 0.00 0.00 49 1015.4
20260831045109 31 190 3.2 4.8 0.00 0.00 0.00 49 1015.4
20260831044605 31 185 1.6 3.2 0.00 0.00 0.00 49 1015.4
20260831044100 31 192 0.0 1.6 0.00 0.00 0.00 49 1015.4
20260831043555 31 191 0.0 1.6 0.00 0.00 0.00 50 1015.3
20260831043051 31 191 1.6 1.6 0.00 0.00 0.00 49 1015.5
20260831042550 31 196 1.6 1.6 0.00 0.00 0.00 49 1015.3
20260831042045 31 199 1.6 1.6 0.00 0.00 0.00 49 1015.4
20260831041539 31 194 1.6 1.6 0.00 0.00 0.00 49 1015.2
20260831041038 31 200 1.6 1.6 0.00 0.00 0.00 49 1015.4
20260831040533 31 190 1.6 1.6 0.00 0.00 0.00 48 1015.4
20260831040028 31 201 1.6 3.2 0.00 0.00 0.00 48 1015.4
20260831035525 31 199 0.0 1.6 0.00 0.00 0.00 48 1015.3
20260831035021 31 180 3.2 4.8 0.00 0.00 0.00 48 1015.2
20260831034515 31 210 4.8 4.8 0.00 0.00 0.00 48 1015.3
20260831034010 31 191 1.6 3.2 0.00 0.00 0.00 48 1014.9
20260831033506 31 194 1.6 1.6 0.00 0.00 0.00 48 1015.1
20260831033002 31 195 0.0 0.0 0.00 0.00 0.00 48 1014.8
20260831032501 31 182 1.6 1.6 0.00 0.00 0.00 48 1014.9
20260831031956 31 190 1.6 1.6 0.00 0.00 0.00 48 1015.2
20260831031456 31 190 0.0 0.0 0.00 0.00 0.00 48 1015.2
20260831030955 31 194 1.6 1.6 0.00 0.00 0.00 48 1015.2
20260831030455 31 197 0.0 0.0 0.00 0.00 0.00 48 1015.3
20260831025952 31 193 0.0 0.0 0.00 0.00 0.00 48 1014.9
20260831025447 32 198 1.6 1.6 0.00 0.00 0.00 48 1014.9
20260831024942 32 193 0.0 0.0 0.00 0.00 0.00 48 1014.9
20260831024442 32 189 0.0 0.0 0.00 0.00 0.00 48 1014.9
20260831023937 32 199 0.0 1.6 0.00 0.00 0.00 48 1014.8
20260831023435 32 196 0.0 0.0 0.00 0.00 0.00 49 1014.8
20260831022930 32 199 0.0 0.0 0.00 0.00 0.00 49 1015.1
20260831022429 32 193 0.0 1.6 0.00 0.00 0.00 48 1014.6
20260831021924 32 189 1.6 1.6 0.00 0.00 0.00 48 1014.7
20260831021423 32 195 0.0 0.0 0.00 0.00 0.00 48 1014.4
20260831020920 32 194 0.0 0.0 0.00 0.00 0.00 47 1014.5
20260831020419 32 196 0.0 0.0 0.00 0.00 0.00 46 1014.3
20260831015914 33 184 1.6 1.6 0.00 0.00 0.00 46 1014.4
20260831015410 33 169 1.6 1.6 0.00 0.00 0.00 45 1014.4
20260831014910 33 168 0.0 0.0 0.00 0.00 0.00 45 1014.1
20260831014404 33 190 0.0 0.0 0.00 0.00 0.00 45 1014.1
20260831013900 33 178 0.0 0.0 0.00 0.00 0.00 44 1013.8
20260831013355 33 148 1.6 1.6 0.00 0.00 0.00 44 1013.9
20260831012850 33 178 1.6 1.6 0.00 0.00 0.00 43 1013.7
20260831012346 34 137 3.2 3.2 0.00 0.00 0.00 42 1013.9
20260831011845 34 168 1.6 1.6 0.00 0.00 0.00 42 1013.8
20260831011340 34 159 3.2 3.2 0.00 0.00 0.00 42 1013.6
20260831010831 34 148 1.6 1.6 0.00 0.00 0.00 42 1013.7
20260831010330 34 184 0.0 0.0 0.00 0.00 0.00 42 1013.7
20260831005826 35 182 0.0 1.6 0.00 0.00 0.00 41 1013.6
20260831005322 35 167 3.2 3.2 0.00 0.00 0.00 41 1013.7
20260831004816 35 144 1.6 3.2 0.00 0.00 0.00 40 1013.7
20260831004312 35 169 3.2 4.8 0.00 0.00 0.00 40 1013.4
20260831003807 35 175 1.6 3.2 0.00 0.00 0.00 40 1013.5
20260831003304 35 185 0.0 1.6 0.00 0.00 0.00 40 1013.6
20260831002803 35 181 0.0 0.0 0.00 0.00 0.00 39 1013.7
20260831002305 35 169 1.6 1.6 0.00 0.00 0.00 39 1013.5
20260831001758 35 170 1.6 1.6 0.00 0.00 0.00 39 1013.7
20260831001253 36 177 4.8 8.0 0.00 0.00 0.00 39 1013.6
20260831000745 36 154 3.2 3.2 0.00 0.00 0.00 38 1013.7
20260831000244 36 131 3.2 3.2 0.00 0.00 0.00 38 1013.7
20260830235743 36 126 3.2 3.2 0.00 0.00 0.00 38 1013.9
20260830235238 36 185 3.2 3.2 0.00 0.00 0.00 38 1013.8
20260830234733 36 182 3.2 4.8 0.00 0.00 0.00 37 1013.9
20260830234229 36 124 3.2 4.8 0.00 0.00 0.00 37 1013.8
20260830233724 37 143 3.2 3.2 0.00 0.00 0.00 37 1013.8
20260830233220 37 141 4.8 8.0 0.00 0.00 0.00 37 1013.8
20260830232715 36 220 4.8 11.3 0.00 0.00 0.00 37 1013.7
20260830232211 36 56 1.6 1.6 0.00 0.00 0.00 37 1013.8
20260830231708 36 132 1.6 3.2 0.00 0.00 0.00 38 1013.9
20260830231207 37 92 4.8 8.0 0.00 0.00 0.00 37 1013.9
20260830230702 37 108 3.2 8.0 0.00 0.00 0.00 36 1013.8
20260830230157 37 201 4.8 4.8 0.00 0.00 0.00 34 1013.7
20260830225651 37 200 1.6 3.2 0.00 0.00 0.00 34 1013.7
20260830225146 38 208 6.4 8.0 0.00 0.00 0.00 34 1014.0
20260830224645 37 53 1.6 4.8 0.00 0.00 0.00 36 1014.0
20260830224141 38 128 4.8 4.8 0.00 0.00 0.00 35 1014.0
20260830223638 37 84 1.6 3.2 0.00 0.00 0.00 35 1013.9
20260830223137 37 205 3.2 3.2 0.00 0.00 0.00 35 1014.0
20260830222632 37 142 1.6 3.2 0.00 0.00 0.00 36 1014.1
20260830222128 37 98 4.8 8.0 0.00 0.00 0.00 34 1014.3
20260830221624 38 192 6.4 8.0 0.00 0.00 0.00 34 1014.0
20260830221120 38 202 3.2 4.8 0.00 0.00 0.00 34 1014.1
20260830220615 38 107 1.6 3.2 0.00 0.00 0.00 33 1014.1
20260830220114 38 201 6.4 8.0 0.00 0.00 0.00 34 1014.0
20260830215613 38 204 0.0 1.6 0.00 0.00 0.00 33 1014.1
20260830215108 37 168 4.8 4.8 0.00 0.00 0.00 34 1014.0
20260830214603 37 182 8.0 12.9 0.00 0.00 0.00 34 1014.1
20260830214058 37 209 6.4 8.0 0.00 0.00 0.00 34 1014.4
20260830213557 37 207 0.0 0.0 0.00 0.00 0.00 33 1014.3
20260830213053 37 207 4.8 4.8 0.00 0.00 0.00 34 1014.4
20260830212549 37 176 4.8 8.0 0.00 0.00 0.00 34 1014.7
20260830212048 37 194 3.2 3.2 0.00 0.00 0.00 34 1014.5
20260830211543 36 200 8.0 9.7 0.00 0.00 0.00 35 1014.5
20260830211038 37 214 3.2 4.8 0.00 0.00 0.00 35 1014.6
20260830210533 37 178 8.0 9.7 0.00 0.00 0.00 35 1014.5
20260830210032 37 200 6.4 8.0 0.00 0.00 0.00 35 1014.8
20260830205530 38 179 4.8 4.8 0.00 0.00 0.00 35 1014.7
20260830205026 37 48 4.8 4.8 0.00 0.00 0.00 37 1015.0
20260830204525 37 205 0.0 1.6 0.00 0.00 0.00 36 1014.8
20260830204024 38 86 6.4 9.7 0.00 0.00 0.00 35 1014.8
20260830203520 37 218 3.2 3.2 0.00 0.00 0.00 37 1015.0
20260830203015 37 171 8.0 11.3 0.00 0.00 0.00 37 1015.2
20260830202509 38 175 4.8 8.0 0.00 0.00 0.00 36 1015.1
20260830202006 37 193 1.6 1.6 0.00 0.00 0.00 36 1015.1
20260830201504 38 180 6.4 11.3 0.00 0.00 0.00 34 1015.4
20260830201000 38 258 1.6 1.6 0.00 0.00 0.00 36 1015.3
20260830200500 38 179 8.0 11.3 0.00 0.00 0.00 36 1015.5
20260830195959 37 140 1.6 3.2 0.00 0.00 0.00 37 1015.5
20260830195455 37 126 1.6 1.6 0.00 0.00 0.00 37 1015.9
20260830194953 37 219 3.2 3.2 0.00 0.00 0.00 37 1015.9
20260830194453 38 126 6.4 8.0 0.00 0.00 0.00 35 1015.7
20260830193948 38 200 8.0 9.7 0.00 0.00 0.00 35 1015.7
20260830193446 38 200 3.2 3.2 0.00 0.00 0.00 36 1016.0
20260830192942 37 176 14.5 17.7 0.00 0.00 0.00 38 1015.9
20260830192437 38 236 6.4 9.7 0.00 0.00 0.00 37 1016.2
20260830191932 37 108 4.8 8.0 0.00 0.00 0.00 38 1016.1
20260830191432 37 192 1.6 3.2 0.00 0.00 0.00 39 1016.0
20260830190928 37 107 3.2 4.8 0.00 0.00 0.00 39 1016.2
20260830190423 37 213 4.8 9.7 0.00 0.00 0.00 38 1016.2
20260830185922 37 234 9.7 11.3 0.00 0.00 0.00 38 1016.3
20260830185417 38 204 6.4 8.0 0.00 0.00 0.00 38 1016.3
20260830184913 37 152 3.2 4.8 0.00 0.00 0.00 38 1016.6
20260830184411 37 180 11.3 20.9 0.00 0.00 0.00 38 1016.6
20260830183911 38 213 6.4 9.7 0.00 0.00 0.00 39 1016.7
20260830183406 36 263 3.2 4.8 0.00 0.00 0.00 41 1016.5
20260830182902 36 181 19.3 29.0 0.00 0.00 0.00 39 1016.8
20260830182357 36 164 9.7 12.9 0.00 0.00 0.00 40 1016.7
20260830181853 37 195 6.4 9.7 0.00 0.00 0.00 41 1016.7
20260830181349 37 185 11.3 12.9 0.00 0.00 0.00 40 1016.8
20260830180848 37 94 4.8 4.8 0.00 0.00 0.00 40 1017.1
20260830180343 37 185 6.4 9.7 0.00 0.00 0.00 40 1017.1
20260830175842 37 216 1.6 1.6 0.00 0.00 0.00 41 1016.9
20260830175337 37 208 3.2 4.8 0.00 0.00 0.00 41 1017.2
20260830174832 37 208 3.2 4.8 0.00 0.00 0.00 43 1017.2
20260830174327 37 101 6.4 8.0 0.00 0.00 0.00 42 1017.3
20260830173827 36 194 1.6 3.2 0.00 0.00 0.00 43 1017.3
20260830173323 36 168 8.0 9.7 0.00 0.00 0.00 44 1017.5
20260830172819 35 186 8.0 11.3 0.00 0.00 0.00 44 1017.7
20260830172315 36 204 8.0 11.3 0.00 0.00 0.00 46 1017.6
20260830171811 35 169 8.0 12.9 0.00 0.00 0.00 45 1017.8
20260830171306 35 180 3.2 3.2 0.00 0.00 0.00 47 1017.8
20260830170800 35 216 8.0 9.7 0.00 0.00 0.00 46 1017.7
20260830170300 35 207 6.4 9.7 0.00 0.00 0.00 46 1017.9
20260830165759 35 185 9.7 11.3 0.00 0.00 0.00 47 1017.9
20260830165255 35 178 8.0 9.7 0.00 0.00 0.00 48 1018.0
20260830164751 35 170 6.4 9.7 0.00 0.00 0.00 50 1018.1
20260830164247 35 201 4.8 8.0 0.00 0.00 0.00 49 1018.1
20260830163743 35 289 0.0 1.6 0.00 0.00 0.00 49 1018.2
20260830163238 35 190 6.4 9.7 0.00 0.00 0.00 50 1018.4
20260830162732 34 213 1.6 3.2 0.00 0.00 0.00 52 1018.1
20260830162229 34 182 4.8 8.0 0.00 0.00 0.00 52 1018.3
20260830161719 34 43 3.2 4.8 0.00 0.00 0.00 53 1018.3
20260830161218 33 269 1.6 3.2 0.00 0.00 0.00 53 1018.2
20260830160714 33 152 4.8 11.3 0.00 0.00 0.00 53 1018.3
20260830160209 33 209 4.8 4.8 0.00 0.00 0.00 53 1018.3
20260830155706 33 172 0.0 1.6 0.00 0.00 0.00 53 1018.2
20260830155201 33 149 3.2 3.2 0.00 0.00 0.00 54 1018.2
20260830154656 33 151 6.4 9.7 0.00 0.00 0.00 55 1018.3
20260830154152 32 165 4.8 8.0 0.00 0.00 0.00 55 1017.9
20260830153648 33 205 4.8 4.8 0.00 0.00 0.00 55 1018.1
20260830153148 32 203 3.2 4.8 0.00 0.00 0.00 56 1018.3
20260830152647 33 196 1.6 1.6 0.00 0.00 0.00 56 1018.2
20260830152146 32 194 4.8 4.8 0.00 0.00 0.00 56 1018.2
20260830151642 32 183 3.2 3.2 0.00 0.00 0.00 58 1018.3
20260830151141 31 185 8.0 8.0 0.00 0.00 0.00 59 1018.2
20260830150642 32 203 6.4 11.3 0.00 0.00 0.00 59 1018.2
20260830150136 31 280 3.2 3.2 0.00 0.00 0.00 61 1018.3
20260830145636 31 181 3.2 4.8 0.00 0.00 0.00 60 1017.9
20260830145131 31 154 6.4 8.0 0.00 0.00 0.00 62 1018.3
20260830144626 31 176 8.0 8.0 0.00 0.00 0.00 62 1018.3
20260830144122 31 162 4.8 8.0 0.00 0.00 0.00 63 1018.2
20260830143618 30 188 1.6 1.6 0.00 0.00 0.00 64 1018.3
20260830143116 30 188 0.0 0.0 0.00 0.00 0.00 65 1018.1
20260830142612 30 195 1.6 1.6 0.00 0.00 0.00 66 1018.4
20260830142106 30 157 4.8 4.8 0.00 0.00 0.00 65 1018.6
20260830141601 30 182 1.6 3.2 0.00 0.00 0.00 67 1018.4
20260830141056 30 170 4.8 4.8 0.00 0.00 0.00 67 1018.2
20260830140551 29 192 1.6 1.6 0.00 0.00 0.00 68 1018.2
20260830140047 28 198 1.6 1.6 0.00 0.00 0.00 69 1018.7
20260830135541 28 176 4.8 4.8 0.00 0.00 0.00 70 1018.2
20260830135037 27 197 1.6 1.6 0.00 0.00 0.00 71 1018.2
20260830134533 27 189 4.8 4.8 0.00 0.00 0.00 72 1018.5
20260830134028 27 186 0.0 0.0 0.00 0.00 0.00 72 1018.3
20260830133523 27 182 4.8 4.8 0.00 0.00 0.00 72 1018.2
20260830133018 27 177 1.6 1.6 0.00 0.00 0.00 73 1018.2